Voltar ao catálogo

CZ-6A DEB

AtivoSSO
NORAD 56650·DEBRIS·🇨🇳 China

Lançado Nov 11, 2022 de Taiyuan Satellite Launch Center

Loading…

Próximas Passagens (próximas 24 horas)

TLE

AtualizadoSource: Space-Track

Época: Sep 14, 2026, 23:24 UTC

1 56650U 22151AGA 26257.97516828  .00001322  00000-0  67451-3 0  9995
2 56650  98.8330 262.4935 0046198  65.7267 294.8723 14.16853797183577

Acompanhe CZ-6A DEB em tempo real com AllMySat

Download on the App Store